Location: Newark
(55.7167°N, 12.5667°E)
Time: 12:41:55
(UTC+00:00)

N. Korean satellite - Pass Details

Date: 16 December 2019
Orbit: 454 x 508 km, 97.2° (Epoch: 19 January)

Event Time Altitude Azimuth Distance (km) Brightness Sun altitude
Rises 16:13:39 0° 175° (S) 2,594 10.5 -12.2°
Reaches altitude 10° 16:15:46 10° 180° (S) 1,708 9.6 -12.5°
Maximum altitude 16:19:23 56° 259° (W) 599 7.4 -13.0°
Drops below altitude 10° 16:23:00 10° 339° (NNW) 1,697 9.3 -13.4°
Sets 16:25:05 0° 344° (NNW) 2,574 10.2 -13.7°
